User: anonymous   Login
Location: Palomar Mountain Lodge
(33.3110°N, 116.8495°W)
Time: 21:08:06
(UTC-08:00)
Language:

CZ-2C R/B - Orbit

View from above orbital plane
View from above orbital plane
View from above satellite
View from above satellite

Ground track
Ground track

The orbit data is extracted from the following two-line orbital elements,

1 31114U 07010B   18320.59134079 -.00000037 +00000-0 +15821-5 0  9993
2 31114 098.3383 199.7691 0060207 151.4805 208.9688 14.19280617600890
Epoch (UTC): 16 November 2018 14:11:31
Eccentricity: 0.0060207
inclination: 98.3383°
perigee height: 784 km
apogee height: 871 km
right ascension of ascending node: 199.7691°
argument of perigee: 151.4805°
revolutions per day: 14.19280617
mean anomaly at epoch: 208.9688°
orbit number at epoch: 60089

The dashed part of the orbit path shows where the satellite is in the earth's shadow,  

DLR